Location: Coopersdale
(40.3556°N, 78.9372°W)
Time: 00:40:51
(UTC+00:00)

Vanguard 1 - Pass Details

Date: 29 January 2021
Orbit: 649 x 3834 km, 34.2° (Epoch: 06 March)

Event Time Altitude Azimuth Distance (km) Brightness Sun altitude
Rises 22:55:50 0° 284° (WNW) 7,602 15.7 -5.3°
Reaches altitude 10° 23:01:06 10° 279° (W) 6,782 15.5 -6.2°
Maximum altitude 23:22:02 44° 217° (SW) 4,528 13.8 -10.0°
Drops below altitude 10° 23:39:23 10° 153° (SSE) 5,661 13.8 -13.3°
Sets 23:43:20 0° 146° (SE) 6,304 14.0 -14.0°
